MZN809 KSFO-KEWR

Flight info

Callsign MZN809
Flight time N/A
Altitude FL350
Route TRUKN2 ORRCA Q120 GALLI BAM J94 LCU J94 ONL FOD DBQ J94 OBK J584 SLT FQM3
Aircraft B763/H-SABDE1E2FGIJ1J3J4J5J6J7M2M3P1P2RTUVW/NACEHB1B2U1V1V2D1G1

Departure

Time N/A
Airport San Francisco International Airport (KSFO)

Arrival

Time 2026-05-05 16:09
Airport Newark Liberty International Airport (KEWR)
Time Latitude Longitude Altitude Speed Heading
2026-05-05 13:05 41.87269 -109.73063 33858 ft 535 kts 69°
2026-05-05 13:05 41.88710 -109.68362 32801 ft 559 kts 63°
2026-05-05 13:05 41.90663 -109.63672 31209 ft 593 kts 54°
2026-05-05 13:05 41.93149 -109.59067 29029 ft 624 kts 48°
2026-05-05 13:06 41.96167 -109.54849 26709 ft 632 kts 41°
2026-05-05 13:06 41.99639 -109.51210 25215 ft 632 kts 35°
2026-05-05 13:06 42.02880 -109.47323 25022 ft 625 kts 46°
2026-05-05 13:06 42.05446 -109.42621 25271 ft 618 kts 59°
2026-05-05 13:07 42.07106 -109.37395 26076 ft 604 kts 71°
2026-05-05 13:07 42.07859 -109.31906 27089 ft 590 kts 85°
2026-05-05 13:07 42.07669 -109.26461 28247 ft 575 kts 98°
2026-05-05 13:07 42.06707 -109.21338 29532 ft 558 kts 106°
2026-05-05 13:08 42.05430 -109.16522 31014 ft 537 kts 108°
2026-05-05 13:08 42.04083 -109.11909 32261 ft 522 kts 107°
2026-05-05 13:08 42.02729 -109.07419 33105 ft 516 kts 108°
2026-05-05 13:08 42.01400 -109.03037 34104 ft 502 kts 106°
2026-05-05 13:09 42.00059 -108.98717 34567 ft 501 kts 106°
2026-05-05 13:09 41.98697 -108.94412 34747 ft 498 kts 106°
2026-05-05 13:09 41.96136 -108.85895 34849 ft 483 kts 98°
2026-05-05 13:10 41.95638 -108.81517 34848 ft 468 kts 85°
2026-05-05 13:10 41.95762 -108.77186 34843 ft 460 kts 77°
2026-05-05 13:10 41.96834 -108.68796 34842 ft 456 kts 73°
2026-05-05 13:11 41.97884 -108.60368 34839 ft 459 kts 76°
2026-05-05 13:11 41.98735 -108.51856 34832 ft 462 kts 77°
2026-05-05 13:12 41.99549 -108.43194 34825 ft 471 kts 77°
2026-05-05 13:12 42.00282 -108.34442 34819 ft 471 kts 78°
2026-05-05 13:13 42.01030 -108.25732 34815 ft 464 kts 80°
2026-05-05 13:13 42.01408 -108.21520 34812 ft 446 kts 79°
2026-05-05 13:13 42.01789 -108.17358 34808 ft 455 kts 77°
2026-05-05 13:14 42.02573 -108.08981 34798 ft 442 kts 80°
2026-05-05 13:14 42.03315 -108.00783 34799 ft 443 kts 85°
2026-05-05 13:15 42.03831 -107.94947 34889 ft 451 kts 83°
2026-05-05 13:15 42.04215 -107.90708 34926 ft 462 kts 82°
2026-05-05 13:15 42.04609 -107.86367 34941 ft 473 kts 80°
2026-05-05 13:16 42.05017 -107.81939 34953 ft 484 kts 79°
2026-05-05 13:16 42.05401 -107.77389 34957 ft 496 kts 80°
2026-05-05 13:16 42.05773 -107.72724 34956 ft 508 kts 83°
2026-05-05 13:16 42.06145 -107.67946 34956 ft 519 kts 84°
2026-05-05 13:17 42.06528 -107.63092 34955 ft 530 kts 84°
2026-05-05 13:17 42.06928 -107.58121 34955 ft 538 kts 84°
2026-05-05 13:17 42.07716 -107.47993 34953 ft 547 kts 84°
2026-05-05 13:18 42.08549 -107.37816 34953 ft 549 kts 83°
2026-05-05 13:18 42.09451 -107.27661 34952 ft 546 kts 83°
2026-05-05 13:19 42.10337 -107.17483 34951 ft 550 kts 83°
2026-05-05 13:19 42.11226 -107.07179 34953 ft 556 kts 84°
2026-05-05 13:20 42.12009 -106.96843 34954 ft 555 kts 85°
2026-05-05 13:20 42.12754 -106.86501 34956 ft 555 kts 85°
2026-05-05 13:21 42.13527 -106.76160 34955 ft 556 kts 84°
2026-05-05 13:21 42.14330 -106.65799 34955 ft 560 kts 85°
2026-05-05 13:22 42.15088 -106.55344 34954 ft 561 kts 85°
2026-05-05 13:22 42.15822 -106.44889 34954 ft 561 kts 85°
2026-05-05 13:23 42.16652 -106.34429 34956 ft 562 kts 84°
2026-05-05 13:23 42.17485 -106.23978 34957 ft 561 kts 84°
2026-05-05 13:24 42.18306 -106.13485 34957 ft 567 kts 85°
2026-05-05 13:24 42.19034 -106.02898 34961 ft 566 kts 86°
2026-05-05 13:25 42.19700 -105.92355 34968 ft 565 kts 86°
2026-05-05 13:25 42.20382 -105.81788 34969 ft 566 kts 86°
2026-05-05 13:26 42.21076 -105.71249 34970 ft 565 kts 85°
2026-05-05 13:26 42.21665 -105.62412 34971 ft 570 kts 85°
2026-05-05 13:27 42.22349 -105.51783 34971 ft 570 kts 85°
2026-05-05 13:27 42.23088 -105.41157 34971 ft 569 kts 85°
2026-05-05 13:28 42.23831 -105.30530 34971 ft 569 kts 85°
2026-05-05 13:28 42.24543 -105.19904 34971 ft 570 kts 85°
2026-05-05 13:29 42.25246 -105.09243 34976 ft 571 kts 85°
2026-05-05 13:29 42.25902 -104.98544 34982 ft 572 kts 86°
2026-05-05 13:30 42.26490 -104.87841 34986 ft 573 kts 86°
2026-05-05 13:30 42.27131 -104.77087 34989 ft 576 kts 85°
2026-05-05 13:31 42.27789 -104.66327 34992 ft 577 kts 85°
2026-05-05 13:31 42.28443 -104.55532 34993 ft 576 kts 85°
2026-05-05 13:32 42.29084 -104.44779 35001 ft 575 kts 86°
2026-05-05 13:32 42.29624 -104.34012 35003 ft 576 kts 86°
2026-05-05 13:33 42.30172 -104.23219 34996 ft 576 kts 86°
2026-05-05 13:33 42.30706 -104.12402 34995 ft 580 kts 86°
2026-05-05 13:34 42.31271 -104.01542 34992 ft 581 kts 85°
2026-05-05 13:34 42.31902 -103.90677 34991 ft 579 kts 86°
2026-05-05 13:35 42.32487 -103.79835 34990 ft 580 kts 86°
2026-05-05 13:35 42.33053 -103.68971 34989 ft 580 kts 85°
2026-05-05 13:36 42.33657 -103.58083 34988 ft 583 kts 85°
2026-05-05 13:36 42.34178 -103.47145 34986 ft 583 kts 86°
2026-05-05 13:37 42.34674 -103.36223 34985 ft 583 kts 86°
2026-05-05 13:37 42.35171 -103.25300 34981 ft 583 kts 86°
2026-05-05 13:38 42.35623 -103.14362 34980 ft 585 kts 86°
2026-05-05 13:38 42.36061 -103.03411 34977 ft 585 kts 86°
2026-05-05 13:39 42.36510 -102.92425 34976 ft 584 kts 86°
2026-05-05 13:39 42.36971 -102.81459 34974 ft 585 kts 86°
2026-05-05 13:40 42.37481 -102.70507 34975 ft 585 kts 85°
2026-05-05 13:40 42.38000 -102.59514 34977 ft 586 kts 86°
2026-05-05 13:41 42.38493 -102.48546 34978 ft 586 kts 86°
2026-05-05 13:41 42.38882 -102.37557 34980 ft 585 kts 87°
2026-05-05 13:42 42.39233 -102.26558 34982 ft 585 kts 87°
2026-05-05 13:42 42.39622 -102.15579 34983 ft 585 kts 86°
2026-05-05 13:43 42.40037 -102.04588 34984 ft 586 kts 86°
2026-05-05 13:43 42.40471 -101.93595 34983 ft 586 kts 86°
2026-05-05 13:44 42.40906 -101.82588 34982 ft 586 kts 87°
2026-05-05 13:44 42.41215 -101.71592 34983 ft 586 kts 88°
2026-05-05 13:45 42.41520 -101.60585 34980 ft 585 kts 87°
2026-05-05 13:45 42.41852 -101.49610 34980 ft 581 kts 85°
2026-05-05 13:46 42.42194 -101.38702 34976 ft 582 kts 85°
2026-05-05 13:46 42.42515 -101.27734 34977 ft 585 kts 88°
2026-05-05 13:47 42.42794 -101.16750 34974 ft 584 kts 88°
2026-05-05 13:47 42.43026 -101.05764 34974 ft 584 kts 88°
2026-05-05 13:48 42.43344 -100.94818 34974 ft 584 kts 86°
2026-05-05 13:48 42.43682 -100.83834 34974 ft 584 kts 87°
2026-05-05 13:49 42.43984 -100.72867 34973 ft 584 kts 87°
2026-05-05 13:49 42.44274 -100.61889 34974 ft 583 kts 87°
2026-05-05 13:50 42.44544 -100.50931 34974 ft 583 kts 87°
2026-05-05 13:50 42.44783 -100.39964 34974 ft 583 kts 88°
2026-05-05 13:51 42.44941 -100.29006 34974 ft 583 kts 88°
2026-05-05 13:51 42.45126 -100.18042 34978 ft 583 kts 88°
2026-05-05 13:52 42.45357 -100.07082 34983 ft 583 kts 87°
2026-05-05 13:52 42.45611 -99.96142 34984 ft 583 kts 87°
2026-05-05 13:53 42.45816 -99.85146 34984 ft 584 kts 88°
2026-05-05 13:53 42.45924 -99.74176 34977 ft 583 kts 89°
2026-05-05 13:54 42.46036 -99.63219 34976 ft 583 kts 88°
2026-05-05 13:54 42.46190 -99.52241 34973 ft 583 kts 88°
2026-05-05 13:55 42.46375 -99.41276 34972 ft 583 kts 88°
2026-05-05 13:55 42.46527 -99.30291 34965 ft 582 kts 88°
2026-05-05 13:56 42.46704 -99.19329 34964 ft 582 kts 88°
2026-05-05 13:56 42.46785 -99.08396 34963 ft 581 kts 89°
2026-05-05 13:57 42.46811 -98.97431 34963 ft 582 kts 89°
2026-05-05 13:57 42.46871 -98.86483 34962 ft 583 kts 89°
2026-05-05 13:58 42.46935 -98.75505 34962 ft 583 kts 88°
2026-05-05 13:58 42.47113 -98.64523 34960 ft 584 kts 86°
2026-05-05 13:59 42.47995 -98.48101 34957 ft 584 kts 83°
2026-05-05 14:00 42.48857 -98.33502 34950 ft 582 kts 84°
2026-05-05 14:00 42.49492 -98.20722 34950 ft 583 kts 85°
2026-05-05 14:01 42.49944 -98.09783 34945 ft 583 kts 85°
2026-05-05 14:01 42.50396 -97.98808 34946 ft 583 kts 85°
2026-05-05 14:02 42.50891 -97.87858 34942 ft 583 kts 85°
2026-05-05 14:02 42.51368 -97.76899 34941 ft 583 kts 85°
2026-05-05 14:03 42.51864 -97.65960 34941 ft 583 kts 85°
2026-05-05 14:03 42.52343 -97.54995 34942 ft 582 kts 85°
2026-05-05 14:04 42.52836 -97.44055 34943 ft 582 kts 85°
2026-05-05 14:04 42.53251 -97.33109 34943 ft 582 kts 86°
2026-05-05 14:05 42.53616 -97.22146 34943 ft 583 kts 86°
2026-05-05 14:05 42.54014 -97.11176 34944 ft 582 kts 85°
2026-05-05 14:06 42.54460 -97.00227 34942 ft 582 kts 85°
2026-05-05 14:06 42.54918 -96.89277 34942 ft 583 kts 85°
2026-05-05 14:07 42.55265 -96.78311 34941 ft 583 kts 86°
2026-05-05 14:07 42.55612 -96.67375 34930 ft 583 kts 86°
2026-05-05 14:08 42.55966 -96.56415 34930 ft 579 kts 87°
2026-05-05 14:08 42.56338 -96.45457 34923 ft 582 kts 86°
2026-05-05 14:09 42.56743 -96.34492 34922 ft 583 kts 86°
2026-05-05 14:09 42.57035 -96.23517 34919 ft 583 kts 87°
2026-05-05 14:10 42.57333 -96.12522 34917 ft 582 kts 86°
2026-05-05 14:10 42.57656 -96.01595 34916 ft 577 kts 86°
2026-05-05 14:11 42.57996 -95.90631 34919 ft 584 kts 86°
2026-05-05 14:11 42.58233 -95.79635 34928 ft 583 kts 87°
2026-05-05 14:12 42.58475 -95.68651 34936 ft 583 kts 87°
2026-05-05 14:12 42.58759 -95.57686 34939 ft 583 kts 86°
2026-05-05 14:13 42.59063 -95.46726 34941 ft 572 kts 81°
2026-05-05 14:13 42.59329 -95.35976 34937 ft 579 kts 87°
2026-05-05 14:14 42.59496 -95.25009 34919 ft 582 kts 88°
2026-05-05 14:14 42.59677 -95.14040 34917 ft 583 kts 88°
2026-05-05 14:15 42.59837 -95.03028 34916 ft 583 kts 88°
2026-05-05 14:15 42.60068 -94.92084 34911 ft 573 kts 84°
2026-05-05 14:16 42.60298 -94.81242 34910 ft 575 kts 90°
2026-05-05 14:16 42.60506 -94.70313 34903 ft 583 kts 87°
2026-05-05 14:17 42.60745 -94.59302 34899 ft 584 kts 87°
2026-05-05 14:17 42.60935 -94.48284 34894 ft 583 kts 88°
2026-05-05 14:18 42.61032 -94.37292 34890 ft 583 kts 89°
2026-05-05 14:18 42.61062 -94.26340 34888 ft 581 kts 90°
2026-05-05 14:19 42.60664 -94.15329 34892 ft 584 kts 94°
2026-05-05 14:19 42.60046 -94.04358 34895 ft 584 kts 94°
2026-05-05 14:20 42.59467 -93.93371 34905 ft 584 kts 94°
2026-05-05 14:20 42.58956 -93.82410 34923 ft 584 kts 93°
2026-05-05 14:21 42.58468 -93.71455 34922 ft 568 kts 86°
2026-05-05 14:21 42.57973 -93.60701 34924 ft 578 kts 94°
2026-05-05 14:22 42.57484 -93.49786 34919 ft 581 kts 93°
2026-05-05 14:22 42.57060 -93.40690 34925 ft 581 kts 94°
2026-05-05 14:23 42.56447 -93.29778 34928 ft 582 kts 95°
2026-05-05 14:23 42.55851 -93.18842 34927 ft 581 kts 96°
2026-05-05 14:24 42.55583 -93.13440 34931 ft 569 kts 97°
2026-05-05 14:24 42.55310 -93.08058 34932 ft 577 kts 94°
2026-05-05 14:24 42.54784 -92.97159 34931 ft 581 kts 94°
2026-05-05 14:25 42.54158 -92.86274 34927 ft 580 kts 95°
2026-05-05 14:25 42.53508 -92.75355 34917 ft 580 kts 95°
2026-05-05 14:26 42.52911 -92.64504 34902 ft 576 kts 94°
2026-05-05 14:26 42.52345 -92.53767 34894 ft 571 kts 95°
2026-05-05 14:27 42.51682 -92.42953 34887 ft 578 kts 95°
2026-05-05 14:27 42.50967 -92.32129 34886 ft 578 kts 95°
2026-05-05 14:28 42.50290 -92.21291 34885 ft 577 kts 95°
2026-05-05 14:28 42.49632 -92.10457 34884 ft 578 kts 95°
2026-05-05 14:29 42.48921 -91.99632 34883 ft 578 kts 96°
2026-05-05 14:29 42.48195 -91.88788 34884 ft 578 kts 96°
2026-05-05 14:30 42.47527 -91.77945 34889 ft 578 kts 95°
2026-05-05 14:30 42.46891 -91.67098 34894 ft 581 kts 94°
2026-05-05 14:31 42.46214 -91.56202 34895 ft 579 kts 96°
2026-05-05 14:31 42.45493 -91.45346 34897 ft 578 kts 94°
2026-05-05 14:32 42.44752 -91.34506 34891 ft 579 kts 96°
2026-05-05 14:32 42.44024 -91.23661 34889 ft 579 kts 96°
2026-05-05 14:33 42.43192 -91.12850 34885 ft 577 kts 97°
2026-05-05 14:33 42.42373 -91.02062 34881 ft 577 kts 96°
2026-05-05 14:34 42.41582 -90.91265 34881 ft 575 kts 91°
2026-05-05 14:34 42.41194 -90.85964 34883 ft 563 kts 93°
2026-05-05 14:34 42.40826 -90.80650 34881 ft 571 kts 96°
2026-05-05 14:35 42.40067 -90.69888 34881 ft 576 kts 96°
2026-05-05 14:35 42.39417 -90.59104 34880 ft 576 kts 95°
2026-05-05 14:36 42.38883 -90.48307 34878 ft 576 kts 94°
2026-05-05 14:36 42.38321 -90.37497 34870 ft 576 kts 94°
2026-05-05 14:37 42.37719 -90.26746 34868 ft 575 kts 95°
2026-05-05 14:37 42.37066 -90.16015 34862 ft 571 kts 96°
2026-05-05 14:38 42.36371 -90.05317 34861 ft 572 kts 96°
2026-05-05 14:38 42.35760 -89.94615 34861 ft 572 kts 95°
2026-05-05 14:39 42.35174 -89.83890 34863 ft 573 kts 96°
2026-05-05 14:39 42.34581 -89.73351 34868 ft 552 kts 97°
2026-05-05 14:40 42.33938 -89.62870 34866 ft 565 kts 96°
2026-05-05 14:40 42.33239 -89.52257 34866 ft 569 kts 96°
2026-05-05 14:41 42.32518 -89.41627 34868 ft 569 kts 97°
2026-05-05 14:41 42.31794 -89.30982 34869 ft 570 kts 96°
2026-05-05 14:42 42.31110 -89.20348 34874 ft 564 kts 89°
2026-05-05 14:42 42.30437 -89.09824 34875 ft 565 kts 96°
2026-05-05 14:43 42.29723 -88.99224 34875 ft 569 kts 96°
2026-05-05 14:43 42.28985 -88.88565 34876 ft 570 kts 96°
2026-05-05 14:44 42.28218 -88.77926 34877 ft 570 kts 96°
2026-05-05 14:44 42.27405 -88.67251 34878 ft 574 kts 95°
2026-05-05 14:45 42.27014 -88.61948 34878 ft 559 kts 89°
2026-05-05 14:45 42.26656 -88.56788 34881 ft 558 kts 95°
2026-05-05 14:45 42.25944 -88.46228 34880 ft 567 kts 100°
2026-05-05 14:46 42.25598 -88.41063 34878 ft 543 kts 104°
2026-05-05 14:46 42.25273 -88.36099 34880 ft 523 kts 103°
2026-05-05 14:46 42.24565 -88.26149 34889 ft 546 kts 97°
2026-05-05 14:47 42.23785 -88.15788 34889 ft 562 kts 98°
2026-05-05 14:47 42.22910 -88.05386 34889 ft 541 kts 88°
2026-05-05 14:48 42.22488 -88.00466 34891 ft 517 kts 88°
2026-05-05 14:48 42.22110 -87.95605 34892 ft 527 kts 94°
2026-05-05 14:48 42.21839 -87.90623 34891 ft 540 kts 94°
2026-05-05 14:48 42.21688 -87.85525 34891 ft 552 kts 92°
2026-05-05 14:49 42.21518 -87.74983 34889 ft 568 kts 91°
2026-05-05 14:49 42.21326 -87.64335 34889 ft 568 kts 92°
2026-05-05 14:50 42.21015 -87.53698 34887 ft 574 kts 91°
2026-05-05 14:50 42.20656 -87.43021 34887 ft 563 kts 95°
2026-05-05 14:51 42.20294 -87.32404 34884 ft 568 kts 94°
2026-05-05 14:51 42.19925 -87.21774 34883 ft 564 kts 94°
2026-05-05 14:52 42.19592 -87.11323 34877 ft 559 kts 94°
2026-05-05 14:52 42.19227 -87.00841 34874 ft 560 kts 93°
2026-05-05 14:53 42.18822 -86.90591 34867 ft 525 kts 85°
2026-05-05 14:53 42.18413 -86.80829 34861 ft 532 kts 94°
2026-05-05 14:54 42.18225 -86.75818 34860 ft 544 kts 94°
2026-05-05 14:54 42.18045 -86.70673 34859 ft 553 kts 94°
2026-05-05 14:54 42.17687 -86.60224 34861 ft 563 kts 94°
2026-05-05 14:55 42.17330 -86.49684 34862 ft 563 kts 94°
2026-05-05 14:55 42.16940 -86.39177 34860 ft 552 kts 85°
2026-05-05 14:56 42.16695 -86.34130 34858 ft 525 kts 86°
2026-05-05 14:56 42.16450 -86.29315 34861 ft 515 kts 87°
2026-05-05 14:56 42.16229 -86.24447 34861 ft 527 kts 95°
2026-05-05 14:56 42.16022 -86.19480 34857 ft 540 kts 94°
2026-05-05 14:57 42.15823 -86.14369 34857 ft 552 kts 94°
2026-05-05 14:57 42.15631 -86.09154 34856 ft 561 kts 94°
2026-05-05 14:57 42.15217 -85.98584 34850 ft 568 kts 95°
2026-05-05 14:58 42.14685 -85.87961 34840 ft 568 kts 96°
2026-05-05 14:58 42.14135 -85.77388 34835 ft 567 kts 95°
2026-05-05 14:59 42.13586 -85.66789 34815 ft 564 kts 95°
2026-05-05 14:59 42.13105 -85.56280 34811 ft 562 kts 94°
2026-05-05 15:00 42.12741 -85.47518 34810 ft 563 kts 94°
2026-05-05 15:00 42.12209 -85.35248 34815 ft 565 kts 94°
2026-05-05 15:01 42.11701 -85.24784 34830 ft 547 kts 101°
2026-05-05 15:01 42.11421 -85.19740 34842 ft 536 kts 101°
2026-05-05 15:01 42.11143 -85.14706 34844 ft 546 kts 95°
2026-05-05 15:02 42.10578 -85.04356 34845 ft 560 kts 95°
2026-05-05 15:02 42.09981 -84.93886 34844 ft 563 kts 95°
2026-05-05 15:03 42.09406 -84.83380 34843 ft 563 kts 95°
2026-05-05 15:03 42.08846 -84.72847 34841 ft 569 kts 96°
2026-05-05 15:04 42.08255 -84.62190 34843 ft 572 kts 97°
2026-05-05 15:04 42.07634 -84.51645 34844 ft 564 kts 95°
2026-05-05 15:05 42.06727 -84.35816 34844 ft 565 kts 95°
2026-05-05 15:06 42.06129 -84.25294 34845 ft 565 kts 95°
2026-05-05 15:06 42.05526 -84.14785 34842 ft 553 kts 101°
2026-05-05 15:06 42.05239 -84.09689 34841 ft 542 kts 100°
2026-05-05 15:07 42.04965 -84.04635 34842 ft 546 kts 97°
2026-05-05 15:07 42.04345 -83.94302 34830 ft 560 kts 96°
2026-05-05 15:08 42.03630 -83.83869 34823 ft 561 kts 96°
2026-05-05 15:08 42.02921 -83.73401 34816 ft 562 kts 96°
2026-05-05 15:09 42.02237 -83.63033 34803 ft 559 kts 95°
2026-05-05 15:09 42.01575 -83.52562 34805 ft 563 kts 98°
2026-05-05 15:10 42.00917 -83.42490 34803 ft 557 kts 95°
2026-05-05 15:10 42.00269 -83.32099 34797 ft 558 kts 95°
2026-05-05 15:11 41.99603 -83.21735 34791 ft 555 kts 96°
2026-05-05 15:11 41.98826 -83.11442 34775 ft 553 kts 96°
2026-05-05 15:12 41.98057 -83.01118 34772 ft 558 kts 95°
2026-05-05 15:12 41.97259 -82.90776 34768 ft 553 kts 97°
2026-05-05 15:13 41.96525 -82.80507 34771 ft 553 kts 95°
2026-05-05 15:13 41.95841 -82.70234 34770 ft 551 kts 96°
2026-05-05 15:14 41.95122 -82.60026 34765 ft 550 kts 96°
2026-05-05 15:14 41.94424 -82.49781 34770 ft 555 kts 95°
2026-05-05 15:15 41.93627 -82.39437 34769 ft 557 kts 96°
2026-05-05 15:15 41.92781 -82.29230 34770 ft 549 kts 97°
2026-05-05 15:16 41.91954 -82.19032 34772 ft 550 kts 97°
2026-05-05 15:16 41.91141 -82.08831 34769 ft 550 kts 97°
2026-05-05 15:17 41.90432 -82.00332 34768 ft 551 kts 97°
2026-05-05 15:17 41.89667 -81.90032 34769 ft 559 kts 95°
2026-05-05 15:18 41.88874 -81.79692 34770 ft 552 kts 97°
2026-05-05 15:18 41.88039 -81.69492 34790 ft 549 kts 97°
2026-05-05 15:19 41.87182 -81.59309 34798 ft 551 kts 97°
2026-05-05 15:19 41.86306 -81.49100 34804 ft 551 kts 98°
2026-05-05 15:20 41.85386 -81.38897 34810 ft 554 kts 94°
2026-05-05 15:20 41.84541 -81.28643 34805 ft 555 kts 96°
2026-05-05 15:21 41.83731 -81.18425 34803 ft 550 kts 97°
2026-05-05 15:21 41.82896 -81.08230 34801 ft 551 kts 97°
2026-05-05 15:22 41.82051 -80.98030 34793 ft 551 kts 98°
2026-05-05 15:22 41.81084 -80.87871 34789 ft 551 kts 98°
2026-05-05 15:23 41.80130 -80.77745 34782 ft 562 kts 96°
2026-05-05 15:23 41.79178 -80.67361 34780 ft 548 kts 98°
2026-05-05 15:24 41.78233 -80.57222 34773 ft 550 kts 98°
2026-05-05 15:24 41.77284 -80.47080 34768 ft 550 kts 98°
2026-05-05 15:25 41.76300 -80.36918 34761 ft 551 kts 98°
2026-05-05 15:25 41.75326 -80.26719 34746 ft 557 kts 96°
2026-05-05 15:26 41.74421 -80.16477 34747 ft 548 kts 98°
2026-05-05 15:26 41.73518 -80.06330 34741 ft 549 kts 98°
2026-05-05 15:27 41.72577 -79.96186 34741 ft 550 kts 99°
2026-05-05 15:27 41.71529 -79.86124 34741 ft 551 kts 99°
2026-05-05 15:28 41.70456 -79.75852 34740 ft 554 kts 99°
2026-05-05 15:28 41.69409 -79.65570 34740 ft 559 kts 99°
2026-05-05 15:29 41.68339 -79.55363 34739 ft 552 kts 99°
2026-05-05 15:29 41.67323 -79.45296 34740 ft 553 kts 98°
2026-05-05 15:30 41.66338 -79.34992 34740 ft 553 kts 98°
2026-05-05 15:30 41.65341 -79.24809 34745 ft 553 kts 98°
2026-05-05 15:31 41.64301 -79.14704 34761 ft 548 kts 97°
2026-05-05 15:31 41.63213 -79.04548 34759 ft 552 kts 96°
2026-05-05 15:32 41.62115 -78.94533 34761 ft 553 kts 99°
2026-05-05 15:32 41.60976 -78.84257 34760 ft 553 kts 99°
2026-05-05 15:33 41.59868 -78.74146 34755 ft 553 kts 99°
2026-05-05 15:33 41.58764 -78.63941 34756 ft 553 kts 99°
2026-05-05 15:34 41.57670 -78.53781 34753 ft 552 kts 97°
2026-05-05 15:34 41.56566 -78.43827 34754 ft 526 kts 99°
2026-05-05 15:35 41.55459 -78.34254 34757 ft 523 kts 99°
2026-05-05 15:35 41.54333 -78.24634 34757 ft 526 kts 99°
2026-05-05 15:36 41.53302 -78.15036 34757 ft 521 kts 98°
2026-05-05 15:36 41.52284 -78.05493 34753 ft 521 kts 98°
2026-05-05 15:37 41.51164 -77.95808 34752 ft 522 kts 99°
2026-05-05 15:37 41.50548 -77.91111 34753 ft 511 kts 101°
2026-05-05 15:37 41.49881 -77.86436 34754 ft 514 kts 101°
2026-05-05 15:38 41.48478 -77.77044 34753 ft 520 kts 101°
2026-05-05 15:38 41.47106 -77.67598 34753 ft 518 kts 101°
2026-05-05 15:39 41.45734 -77.58183 34752 ft 518 kts 101°
2026-05-05 15:39 41.44384 -77.48737 34750 ft 521 kts 100°
2026-05-05 15:40 41.43007 -77.39250 34748 ft 510 kts 101°
2026-05-05 15:40 41.41676 -77.30018 34751 ft 511 kts 101°
2026-05-05 15:41 41.40334 -77.20651 34750 ft 517 kts 101°
2026-05-05 15:41 41.38997 -77.11231 34751 ft 519 kts 102°
2026-05-05 15:42 41.37552 -77.01799 34749 ft 519 kts 103°
2026-05-05 15:42 41.36063 -76.92371 34747 ft 526 kts 98°
2026-05-05 15:43 41.34627 -76.82948 34684 ft 505 kts 102°
2026-05-05 15:43 41.33959 -76.78423 34361 ft 494 kts 102°
2026-05-05 15:43 41.33165 -76.74018 33768 ft 488 kts 107°
2026-05-05 15:43 41.32114 -76.69773 33109 ft 485 kts 111°
2026-05-05 15:44 41.30936 -76.65574 32468 ft 482 kts 113°
2026-05-05 15:44 41.29749 -76.61481 31871 ft 478 kts 113°
2026-05-05 15:44 41.28532 -76.57332 31290 ft 473 kts 113°
2026-05-05 15:44 41.27364 -76.53279 30728 ft 468 kts 112°
2026-05-05 15:45 41.26240 -76.49258 30170 ft 463 kts 112°
2026-05-05 15:45 41.25145 -76.45268 29616 ft 458 kts 112°
2026-05-05 15:45 41.24068 -76.41290 29066 ft 456 kts 111°
2026-05-05 15:45 41.23018 -76.37295 28521 ft 459 kts 111°
2026-05-05 15:46 41.21965 -76.33302 27974 ft 457 kts 111°
2026-05-05 15:46 41.20912 -76.29357 27431 ft 455 kts 112°
2026-05-05 15:46 41.19857 -76.25406 26885 ft 450 kts 111°
2026-05-05 15:46 41.18827 -76.21524 26349 ft 445 kts 111°
2026-05-05 15:47 41.17795 -76.17670 25816 ft 441 kts 111°
2026-05-05 15:47 41.17112 -76.15115 25464 ft 438 kts 111°
2026-05-05 15:47 41.15744 -76.10094 24771 ft 431 kts 112°
2026-05-05 15:47 41.14712 -76.06386 24258 ft 427 kts 112°
2026-05-05 15:48 41.13673 -76.02725 23750 ft 423 kts 112°
2026-05-05 15:48 41.12650 -75.99092 23246 ft 419 kts 112°
2026-05-05 15:48 41.11643 -75.95491 22747 ft 416 kts 112°
2026-05-05 15:48 41.10647 -75.91896 22249 ft 412 kts 112°
2026-05-05 15:49 41.09665 -75.88337 21759 ft 412 kts 112°
2026-05-05 15:49 41.08687 -75.84779 21265 ft 410 kts 112°
2026-05-05 15:49 41.07718 -75.81252 20776 ft 407 kts 112°
2026-05-05 15:49 41.06759 -75.77730 20289 ft 404 kts 112°
2026-05-05 15:50 41.05811 -75.74249 19807 ft 401 kts 112°
2026-05-05 15:50 41.04861 -75.70796 19331 ft 397 kts 113°
2026-05-05 15:50 41.03915 -75.67387 18863 ft 394 kts 113°
2026-05-05 15:50 41.02967 -75.63986 18395 ft 391 kts 113°
2026-05-05 15:51 41.02029 -75.60637 17934 ft 387 kts 114°
2026-05-05 15:51 41.01092 -75.57310 17475 ft 384 kts 114°
2026-05-05 15:51 41.00162 -75.54014 17020 ft 381 kts 114°
2026-05-05 15:51 40.99236 -75.50737 16565 ft 378 kts 114°
2026-05-05 15:52 40.98327 -75.47542 16121 ft 376 kts 114°
2026-05-05 15:52 40.97396 -75.44270 15668 ft 373 kts 114°
2026-05-05 15:52 40.96489 -75.41089 15228 ft 370 kts 114°
2026-05-05 15:52 40.95578 -75.37907 14787 ft 369 kts 113°
2026-05-05 15:53 40.94687 -75.34728 14342 ft 368 kts 112°
2026-05-05 15:53 40.93820 -75.31554 13902 ft 366 kts 113°
2026-05-05 15:53 40.92965 -75.28394 13464 ft 364 kts 113°
2026-05-05 15:53 40.92120 -75.25258 13029 ft 361 kts 114°
2026-05-05 15:54 40.91271 -75.22153 12597 ft 359 kts 114°
2026-05-05 15:54 40.90421 -75.19076 12167 ft 356 kts 114°
2026-05-05 15:54 40.89557 -75.16002 11737 ft 354 kts 115°
2026-05-05 15:54 40.88690 -75.12982 11315 ft 351 kts 115°
2026-05-05 15:55 40.87801 -75.09982 10895 ft 349 kts 116°
2026-05-05 15:55 40.86930 -75.07018 10480 ft 347 kts 116°
2026-05-05 15:55 40.86066 -75.04055 10066 ft 345 kts 116°
2026-05-05 15:55 40.85217 -75.01119 9762 ft 339 kts 115°
2026-05-05 15:56 40.84401 -74.98264 9530 ft 331 kts 115°
2026-05-05 15:56 40.83599 -74.95412 9188 ft 329 kts 115°
2026-05-05 15:56 40.82834 -74.92577 8942 ft 323 kts 114°
2026-05-05 15:56 40.82283 -74.89732 8764 ft 319 kts 104°
2026-05-05 15:57 40.82050 -74.86813 8591 ft 323 kts 96°
2026-05-05 15:57 40.81941 -74.83855 8463 ft 322 kts 94°
2026-05-05 15:57 40.81859 -74.80928 8229 ft 321 kts 95°
2026-05-05 15:57 40.81779 -74.77961 7722 ft 326 kts 95°
2026-05-05 15:58 40.81704 -74.74944 7175 ft 332 kts 94°
2026-05-05 15:58 40.81963 -74.71883 6625 ft 339 kts 81°
2026-05-05 15:58 40.82574 -74.68868 6114 ft 343 kts 75°
2026-05-05 15:58 40.83282 -74.65878 5789 ft 339 kts 73°
2026-05-05 15:59 40.83974 -74.62932 5529 ft 333 kts 74°
2026-05-05 15:59 40.84597 -74.60025 5281 ft 327 kts 76°
2026-05-05 15:59 40.85192 -74.57150 5031 ft 322 kts 76°
2026-05-05 15:59 40.85779 -74.54312 4781 ft 318 kts 76°
2026-05-05 16:00 40.86358 -74.51514 4530 ft 314 kts 76°
2026-05-05 16:00 40.86933 -74.48748 4287 ft 310 kts 76°
2026-05-05 16:00 40.87496 -74.46045 4019 ft 304 kts 76°
2026-05-05 16:00 40.88056 -74.43358 3778 ft 301 kts 76°
2026-05-05 16:01 40.88608 -74.40703 3529 ft 299 kts 76°
2026-05-05 16:01 40.89158 -74.38060 3280 ft 297 kts 76°
2026-05-05 16:01 40.89702 -74.35438 3031 ft 295 kts 76°
2026-05-05 16:01 40.90233 -74.32852 2802 ft 288 kts 74°
2026-05-05 16:02 40.90691 -74.30323 2536 ft 280 kts 80°
2026-05-05 16:02 40.90673 -74.27812 2398 ft 267 kts 101°
2026-05-05 16:02 40.90312 -74.25511 2424 ft 248 kts 107°
2026-05-05 16:02 40.89910 -74.23375 2529 ft 233 kts 108°
2026-05-05 16:03 40.89522 -74.21329 2516 ft 229 kts 108°
2026-05-05 16:03 40.89139 -74.19307 2495 ft 221 kts 109°
2026-05-05 16:03 40.88772 -74.17369 2490 ft 215 kts 109°
2026-05-05 16:03 40.88404 -74.15475 2484 ft 213 kts 110°
2026-05-05 16:04 40.87933 -74.13597 2484 ft 215 kts 115°
2026-05-05 16:04 40.87346 -74.11834 2476 ft 206 kts 125°
2026-05-05 16:04 40.86429 -74.10471 2395 ft 193 kts 143°
2026-05-05 16:04 40.85437 -74.09360 2306 ft 181 kts 148°
2026-05-05 16:05 40.84488 -74.08314 2319 ft 175 kts 148°
2026-05-05 16:05 40.83520 -74.07431 2270 ft 163 kts 163°
2026-05-05 16:05 40.82494 -74.07530 2258 ft 142 kts 207°
2026-05-05 16:05 40.81736 -74.08356 2325 ft 147 kts 224°
2026-05-05 16:06 40.80880 -74.09149 2317 ft 152 kts 216°
2026-05-05 16:06 40.79943 -74.09765 2260 ft 151 kts 211°
2026-05-05 16:06 40.78973 -74.10340 2025 ft 153 kts 211°
2026-05-05 16:06 40.78020 -74.10917 1801 ft 150 kts 209°
2026-05-05 16:07 40.77079 -74.11492 1615 ft 148 kts 210°
2026-05-05 16:07 40.76147 -74.12084 1416 ft 149 kts 210°
2026-05-05 16:07 40.75212 -74.12683 1218 ft 150 kts 210°
2026-05-05 16:07 40.74276 -74.13279 1022 ft 151 kts 208°
2026-05-05 16:08 40.73332 -74.13877 813 ft 148 kts 210°
2026-05-05 16:08 40.72408 -74.14461 617 ft 147 kts 208°
2026-05-05 16:08 40.71487 -74.15034 424 ft 146 kts 208°
2026-05-05 16:08 40.70590 -74.15610 226 ft 141 kts 208°
2026-05-05 16:09 40.69736 -74.16162 42 ft 129 kts 207°
2026-05-05 16:09 40.69117 -74.16559 32 ft 66 kts 206°
2026-05-05 16:09 40.68835 -74.16739 32 ft 30 kts 212°
2026-05-05 16:09 40.68728 -74.16871 32 ft 14 kts 231°
2026-05-05 16:10 40.68686 -74.16938 32 ft 0 kts 231°
2026-05-05 16:10 40.68680 -74.16949 32 ft 6 kts 231°
2026-05-05 16:10 40.68647 -74.17002 32 ft 11 kts 231°
2026-05-05 16:10 40.68598 -74.17081 32 ft 7 kts 231°
2026-05-05 16:11 40.68583 -74.17145 32 ft 0 kts 283°
2026-05-05 16:11 40.68601 -74.17213 32 ft 14 kts 292°
2026-05-05 16:12 40.68629 -74.17293 32 ft 14 kts 295°
2026-05-05 16:12 40.68683 -74.17491 32 ft 12 kts 232°
2026-05-05 16:13 40.68471 -74.17650 32 ft 19 kts 222°
2026-05-05 16:13 40.68381 -74.17741 32 ft 17 kts 198°
2026-05-05 16:13 40.68271 -74.17755 32 ft 14 kts 196°
2026-05-05 16:14 40.68078 -74.17889 32 ft 6 kts 255°
2026-05-05 16:14 40.68153 -74.17994 32 ft 3 kts 273°
2026-05-05 16:15 40.68118 -74.18085 32 ft 8 kts 304°
2026-05-05 16:15 40.68132 -74.18111 32 ft 0 kts 303°